Terug naar catalogus

STARLINK-30870

ActiefCommunicatieVLEO
NORAD 58369·PAYLOAD·🇺🇸 United States

Gelanceerd Nov 18, 2023 vanaf Cape Canaveral Space Force Station

Loading…

Volgende Passages (komende 24 uur)

TLE

VersSource: CelesTrak SupGP

Epoch: Sep 14, 2026, 22:33 UTC

1 58369C 23177U   26257.94006944 -.00011182  00000+0 -40496-3 0  2576
2 58369  43.0020   2.0974 0001519 267.1700 232.1249 15.27588726    18

Volg STARLINK-30870 in realtime met AllMySat

Download on the App Store